owner,sensor,date,latitude,longitude,air_pressure(mBar),qcFlag 
WAVCIS,ioos:station:WAVCIS:CSI06:1,2009-03-01T00:00:00Z,28.8667,-90.4833,1015.86,11111222 
WAVCIS,ioos:station:WAVCIS:CSI06:1,2009-03-01T01:00:00Z,28.8667,-90.4833,1017.05,11111222 
WAVCIS,ioos:station:WAVCIS:CSI06:1,2009-03-01T02:00:00Z,28.8667,-90.4833,1018.26,11111222 
WAVCIS,ioos:station:WAVCIS:CSI06:1,2009-03-01T03:00:00Z,28.8667,-90.4833,1019.71,11111222 
WAVCIS,ioos:station:WAVCIS:CSI06:1,2009-03-01T04:00:00Z,28.8667,-90.4833,1020.53,11111222 
WAVCIS,ioos:station:WAVCIS:CSI06:1,2009-03-01T05:00:00Z,28.8667,-90.4833,1020.67,11111222 
WAVCIS,ioos:station:WAVCIS:CSI06:1,2009-03-01T06:00:00Z,28.8667,-90.4833,1020.62,11111222 
WAVCIS,ioos:station:WAVCIS:CSI06:1,2009-03-01T07:00:00Z,28.8667,-90.4833,1021.13,11111222 
WAVCIS,ioos:station:WAVCIS:CSI06:1,2009-03-01T08:00:00Z,28.8667,-90.4833,1021.64,11111222 
WAVCIS,ioos:station:WAVCIS:CSI06:1,2009-03-01T09:00:00Z,28.8667,-90.4833,1021.52,11111222 
WAVCIS,ioos:station:WAVCIS:CSI06:1,2009-03-01T10:00:00Z,28.8667,-90.4833,1021.82,11111222 
WAVCIS,ioos:station:WAVCIS:CSI06:1,2009-03-01T11:00:00Z,28.8667,-90.4833,1022.31,11111222 
WAVCIS,ioos:station:WAVCIS:CSI06:1,2009-03-01T12:00:00Z,28.8667,-90.4833,1023.3,11111222 
WAVCIS,ioos:station:WAVCIS:CSI06:1,2009-03-01T13:00:00Z,28.8667,-90.4833,1024.18,11111222 
WAVCIS,ioos:station:WAVCIS:CSI06:1,2009-03-01T14:00:00Z,28.8667,-90.4833,1025.11,11111222 
WAVCIS,ioos:station:WAVCIS:CSI06:1,2009-03-01T15:00:00Z,28.8667,-90.4833,1025.77,11111222 
WAVCIS,ioos:station:WAVCIS:CSI06:1,2009-03-01T16:00:00Z,28.8667,-90.4833,1026.29,11111222 
WAVCIS,ioos:station:WAVCIS:CSI06:1,2009-03-01T17:00:00Z,28.8667,-90.4833,1026.36,11111222 
WAVCIS,ioos:station:WAVCIS:CSI06:1,2009-03-01T18:00:00Z,28.8667,-90.4833,1025.57,11111222 
WAVCIS,ioos:station:WAVCIS:CSI06:1,2009-03-01T19:00:00Z,28.8667,-90.4833,1024.63,11111222 
WAVCIS,ioos:station:WAVCIS:CSI06:1,2009-03-01T20:00:00Z,28.8667,-90.4833,1023.86,11111222 
WAVCIS,ioos:station:WAVCIS:CSI06:1,2009-03-01T21:00:00Z,28.8667,-90.4833,1023.76,11111222 
WAVCIS,ioos:station:WAVCIS:CSI06:1,2009-03-01T22:00:00Z,28.8667,-90.4833,1023.29,11111222 
WAVCIS,ioos:station:WAVCIS:CSI06:1,2009-03-01T23:00:00Z,28.8667,-90.4833,1023.55,11111222 
WAVCIS,ioos:station:WAVCIS:CSI06:1,2009-03-02T00:00:00Z,28.8667,-90.4833,1023.64,11111222 
WAVCIS,ioos:station:WAVCIS:CSI06:1,2009-03-02T01:00:00Z,28.8667,-90.4833,1024.36,11111222 
WAVCIS,ioos:station:WAVCIS:CSI06:1,2009-03-02T02:00:00Z,28.8667,-90.4833,1024.61,11111222 
WAVCIS,ioos:station:WAVCIS:CSI06:1,2009-03-02T03:00:00Z,28.8667,-90.4833,1025.33,11111222 
WAVCIS,ioos:station:WAVCIS:CSI06:1,2009-03-02T04:00:00Z,28.8667,-90.4833,1026.23,11111222 
WAVCIS,ioos:station:WAVCIS:CSI06:1,2009-03-02T05:00:00Z,28.8667,-90.4833,1026.15,11111222 
WAVCIS,ioos:station:WAVCIS:CSI06:1,2009-03-02T06:00:00Z,28.8667,-90.4833,1025.69,11111222 
WAVCIS,ioos:station:WAVCIS:CSI06:1,2009-03-02T07:00:00Z,28.8667,-90.4833,1026.04,11111222 
WAVCIS,ioos:station:WAVCIS:CSI06:1,2009-03-02T08:00:00Z,28.8667,-90.4833,1025.74,11111222 
WAVCIS,ioos:station:WAVCIS:CSI06:1,2009-03-02T09:00:00Z,28.8667,-90.4833,1025.65,11111222 
WAVCIS,ioos:station:WAVCIS:CSI06:1,2009-03-02T10:00:00Z,28.8667,-90.4833,1025.71,11111222 
WAVCIS,ioos:station:WAVCIS:CSI06:1,2009-03-02T11:00:00Z,28.8667,-90.4833,1025.5,11111222 
WAVCIS,ioos:station:WAVCIS:CSI06:1,2009-03-02T12:00:00Z,28.8667,-90.4833,1025.84,11111222 
WAVCIS,ioos:station:WAVCIS:CSI06:1,2009-03-02T13:00:00Z,28.8667,-90.4833,1026.15,11111222 
WAVCIS,ioos:station:WAVCIS:CSI06:1,2009-03-02T14:00:00Z,28.8667,-90.4833,1027.31,11111222 
WAVCIS,ioos:station:WAVCIS:CSI06:1,2009-03-02T15:00:00Z,28.8667,-90.4833,1027.12,11111222 
WAVCIS,ioos:station:WAVCIS:CSI06:1,2009-03-02T16:00:00Z,28.8667,-90.4833,1027.05,11111222 
WAVCIS,ioos:station:WAVCIS:CSI06:1,2009-03-02T17:00:00Z,28.8667,-90.4833,1026.79,11111222 
WAVCIS,ioos:station:WAVCIS:CSI06:1,2009-03-02T18:00:00Z,28.8667,-90.4833,1026.32,11111222 
WAVCIS,ioos:station:WAVCIS:CSI06:1,2009-03-02T19:00:00Z,28.8667,-90.4833,1025.6,11111222 
WAVCIS,ioos:station:WAVCIS:CSI06:1,2009-03-02T20:00:00Z,28.8667,-90.4833,1024.85,11111222 
WAVCIS,ioos:station:WAVCIS:CSI06:1,2009-03-02T21:00:00Z,28.8667,-90.4833,1024.42,11111222 
WAVCIS,ioos:station:WAVCIS:CSI06:1,2009-03-02T22:00:00Z,28.8667,-90.4833,1023.83,11111222 
WAVCIS,ioos:station:WAVCIS:CSI06:1,2009-03-02T23:00:00Z,28.8667,-90.4833,1023.92,11111222 
WAVCIS,ioos:station:WAVCIS:CSI06:1,2009-03-03T00:00:00Z,28.8667,-90.4833,1023.62,11111222 
WAVCIS,ioos:station:WAVCIS:CSI06:1,2009-03-03T01:00:00Z,28.8667,-90.4833,1024.38,11111222 
WAVCIS,ioos:station:WAVCIS:CSI06:1,2009-03-03T16:00:00Z,28.8667,-90.4833,1027.72,11111222 
WAVCIS,ioos:station:WAVCIS:CSI06:1,2009-03-03T17:00:00Z,28.8667,-90.4833,1027.39,11111222 
WAVCIS,ioos:station:WAVCIS:CSI06:1,2009-03-03T18:00:00Z,28.8667,-90.4833,1027.01,11111222 
WAVCIS,ioos:station:WAVCIS:CSI06:1,2009-03-03T19:00:00Z,28.8667,-90.4833,1026.27,11111222 
WAVCIS,ioos:station:WAVCIS:CSI06:1,2009-03-03T20:00:00Z,28.8667,-90.4833,1025.93,11111222 
WAVCIS,ioos:station:WAVCIS:CSI06:1,2009-03-03T21:00:00Z,28.8667,-90.4833,1025.78,11111222 
WAVCIS,ioos:station:WAVCIS:CSI06:1,2009-03-03T22:00:00Z,28.8667,-90.4833,1026.14,11111222 
WAVCIS,ioos:station:WAVCIS:CSI06:1,2009-03-03T23:00:00Z,28.8667,-90.4833,1026.03,11111222 
WAVCIS,ioos:station:WAVCIS:CSI06:1,2009-03-04T00:00:00Z,28.8667,-90.4833,1025.93,11111222 
WAVCIS,ioos:station:WAVCIS:CSI06:1,2009-03-04T01:00:00Z,28.8667,-90.4833,1025.8,11111222 
WAVCIS,ioos:station:WAVCIS:CSI06:1,2009-03-04T02:00:00Z,28.8667,-90.4833,1025.89,11111222 
WAVCIS,ioos:station:WAVCIS:CSI06:1,2009-03-04T03:00:00Z,28.8667,-90.4833,1026.33,11111222 
WAVCIS,ioos:station:WAVCIS:CSI06:1,2009-03-04T04:00:00Z,28.8667,-90.4833,1025.86,11111222 
WAVCIS,ioos:station:WAVCIS:CSI06:1,2009-03-04T05:00:00Z,28.8667,-90.4833,1025.6,11111222 
WAVCIS,ioos:station:WAVCIS:CSI06:1,2009-03-04T06:00:00Z,28.8667,-90.4833,1024.81,11111222 
WAVCIS,ioos:station:WAVCIS:CSI06:1,2009-03-04T07:00:00Z,28.8667,-90.4833,1024.77,11111222 
WAVCIS,ioos:station:WAVCIS:CSI06:1,2009-03-04T08:00:00Z,28.8667,-90.4833,1024.14,11111222 
WAVCIS,ioos:station:WAVCIS:CSI06:1,2009-03-04T09:00:00Z,28.8667,-90.4833,1023.67,11111222 
WAVCIS,ioos:station:WAVCIS:CSI06:1,2009-03-04T10:00:00Z,28.8667,-90.4833,1023.64,11111222 
WAVCIS,ioos:station:WAVCIS:CSI06:1,2009-03-04T11:00:00Z,28.8667,-90.4833,1023.7,11111222 
WAVCIS,ioos:station:WAVCIS:CSI06:1,2009-03-04T12:00:00Z,28.8667,-90.4833,1024.12,11111222 
WAVCIS,ioos:station:WAVCIS:CSI06:1,2009-03-04T13:00:00Z,28.8667,-90.4833,1024.6,11111222 
WAVCIS,ioos:station:WAVCIS:CSI06:1,2009-03-04T14:00:00Z,28.8667,-90.4833,1025.14,11111222 
WAVCIS,ioos:station:WAVCIS:CSI06:1,2009-03-04T15:00:00Z,28.8667,-90.4833,1025.71,11111222 
WAVCIS,ioos:station:WAVCIS:CSI06:1,2009-03-04T16:00:00Z,28.8667,-90.4833,1026.07,11111222 
WAVCIS,ioos:station:WAVCIS:CSI06:1,2009-03-04T17:00:00Z,28.8667,-90.4833,1026.01,11111222 
WAVCIS,ioos:station:WAVCIS:CSI06:1,2009-03-04T18:00:00Z,28.8667,-90.4833,1025.52,11111222 
WAVCIS,ioos:station:WAVCIS:CSI06:1,2009-03-04T19:00:00Z,28.8667,-90.4833,1025.04,11111222 
WAVCIS,ioos:station:WAVCIS:CSI06:1,2009-03-04T20:00:00Z,28.8667,-90.4833,1024.33,11111222 
WAVCIS,ioos:station:WAVCIS:CSI06:1,2009-03-04T21:00:00Z,28.8667,-90.4833,1023.93,11111222 
WAVCIS,ioos:station:WAVCIS:CSI06:1,2009-03-04T22:00:00Z,28.8667,-90.4833,1023.8,11111222 
WAVCIS,ioos:station:WAVCIS:CSI06:1,2009-03-04T23:00:00Z,28.8667,-90.4833,1023.71,11111222 
WAVCIS,ioos:station:WAVCIS:CSI06:1,2009-03-05T00:00:00Z,28.8667,-90.4833,1023.77,11111222 
WAVCIS,ioos:station:WAVCIS:CSI06:1,2009-03-05T01:00:00Z,28.8667,-90.4833,1024.02,11111222 
WAVCIS,ioos:station:WAVCIS:CSI06:1,2009-03-05T02:00:00Z,28.8667,-90.4833,1024.57,11111222 
WAVCIS,ioos:station:WAVCIS:CSI06:1,2009-03-05T03:00:00Z,28.8667,-90.4833,1024.88,11111222 
WAVCIS,ioos:station:WAVCIS:CSI06:1,2009-03-05T04:00:00Z,28.8667,-90.4833,1024.86,11111222 
WAVCIS,ioos:station:WAVCIS:CSI06:1,2009-03-05T05:00:00Z,28.8667,-90.4833,1024.61,11111222 
WAVCIS,ioos:station:WAVCIS:CSI06:1,2009-03-05T06:00:00Z,28.8667,-90.4833,1024.34,11111222 
WAVCIS,ioos:station:WAVCIS:CSI06:1,2009-03-05T07:00:00Z,28.8667,-90.4833,1024.23,11111222 
WAVCIS,ioos:station:WAVCIS:CSI06:1,2009-03-05T08:00:00Z,28.8667,-90.4833,1023.88,11111222 
WAVCIS,ioos:station:WAVCIS:CSI06:1,2009-03-05T09:00:00Z,28.8667,-90.4833,1023.52,11111222 
WAVCIS,ioos:station:WAVCIS:CSI06:1,2009-03-05T10:00:00Z,28.8667,-90.4833,1023.45,11111222 
WAVCIS,ioos:station:WAVCIS:CSI06:1,2009-03-05T11:00:00Z,28.8667,-90.4833,1024.03,11111222 
WAVCIS,ioos:station:WAVCIS:CSI06:1,2009-03-05T12:00:00Z,28.8667,-90.4833,1024.61,11111222 
WAVCIS,ioos:station:WAVCIS:CSI06:1,2009-03-05T13:00:00Z,28.8667,-90.4833,1024.95,11111222 
WAVCIS,ioos:station:WAVCIS:CSI06:1,2009-03-05T14:00:00Z,28.8667,-90.4833,1025.66,11111222 
WAVCIS,ioos:station:WAVCIS:CSI06:1,2009-03-05T15:00:00Z,28.8667,-90.4833,1026.11,11111222 
WAVCIS,ioos:station:WAVCIS:CSI06:1,2009-03-05T16:00:00Z,28.8667,-90.4833,1026.37,11111222 
WAVCIS,ioos:station:WAVCIS:CSI06:1,2009-03-05T17:00:00Z,28.8667,-90.4833,1026.49,11111222 
WAVCIS,ioos:station:WAVCIS:CSI06:1,2009-03-05T18:00:00Z,28.8667,-90.4833,1025.96,11111222 
WAVCIS,ioos:station:WAVCIS:CSI06:1,2009-03-05T19:00:00Z,28.8667,-90.4833,1025.31,11111222 
WAVCIS,ioos:station:WAVCIS:CSI06:1,2009-03-05T20:00:00Z,28.8667,-90.4833,1024.77,11111222 
WAVCIS,ioos:station:WAVCIS:CSI06:1,2009-03-05T21:00:00Z,28.8667,-90.4833,1024.39,11111222 
WAVCIS,ioos:station:WAVCIS:CSI06:1,2009-03-05T22:00:00Z,28.8667,-90.4833,1024.17,11111222 
WAVCIS,ioos:station:WAVCIS:CSI06:1,2009-03-05T23:00:00Z,28.8667,-90.4833,1023.98,11111222 
WAVCIS,ioos:station:WAVCIS:CSI06:1,2009-03-06T00:00:00Z,28.8667,-90.4833,1024.34,11111222 
WAVCIS,ioos:station:WAVCIS:CSI06:1,2009-03-06T01:00:00Z,28.8667,-90.4833,1024.4,11111222 
WAVCIS,ioos:station:WAVCIS:CSI06:1,2009-03-06T02:00:00Z,28.8667,-90.4833,1024.62,11111222 
WAVCIS,ioos:station:WAVCIS:CSI06:1,2009-03-06T03:00:00Z,28.8667,-90.4833,1025.05,11111222 
WAVCIS,ioos:station:WAVCIS:CSI06:1,2009-03-06T04:00:00Z,28.8667,-90.4833,1025.39,11111222 
WAVCIS,ioos:station:WAVCIS:CSI06:1,2009-03-06T05:00:00Z,28.8667,-90.4833,1025.29,11111222 
WAVCIS,ioos:station:WAVCIS:CSI06:1,2009-03-06T06:00:00Z,28.8667,-90.4833,1025.16,11111222 
WAVCIS,ioos:station:WAVCIS:CSI06:1,2009-03-06T07:00:00Z,28.8667,-90.4833,1024.9,11111222 
WAVCIS,ioos:station:WAVCIS:CSI06:1,2009-03-06T08:00:00Z,28.8667,-90.4833,1024.63,11111222 
WAVCIS,ioos:station:WAVCIS:CSI06:1,2009-03-06T09:00:00Z,28.8667,-90.4833,1024.13,11111222 
WAVCIS,ioos:station:WAVCIS:CSI06:1,2009-03-06T10:00:00Z,28.8667,-90.4833,1023.9,11111222 
WAVCIS,ioos:station:WAVCIS:CSI06:1,2009-03-06T11:00:00Z,28.8667,-90.4833,1024.18,11111222 
WAVCIS,ioos:station:WAVCIS:CSI06:1,2009-03-06T12:00:00Z,28.8667,-90.4833,1024.3,11111222 
WAVCIS,ioos:station:WAVCIS:CSI06:1,2009-03-06T13:00:00Z,28.8667,-90.4833,1024.63,11111222 
WAVCIS,ioos:station:WAVCIS:CSI06:1,2009-03-06T14:00:00Z,28.8667,-90.4833,1025.04,11111222 
WAVCIS,ioos:station:WAVCIS:CSI06:1,2009-03-06T15:00:00Z,28.8667,-90.4833,1025.27,11111222 
WAVCIS,ioos:station:WAVCIS:CSI06:1,2009-03-06T16:00:00Z,28.8667,-90.4833,1025.36,11111222 
WAVCIS,ioos:station:WAVCIS:CSI06:1,2009-03-06T17:00:00Z,28.8667,-90.4833,1025.53,11111222 
WAVCIS,ioos:station:WAVCIS:CSI06:1,2009-03-06T18:00:00Z,28.8667,-90.4833,1025.11,11111222 
WAVCIS,ioos:station:WAVCIS:CSI06:1,2009-03-06T19:00:00Z,28.8667,-90.4833,1024.52,11111222 
WAVCIS,ioos:station:WAVCIS:CSI06:1,2009-03-06T20:00:00Z,28.8667,-90.4833,1024.05,11111222 
WAVCIS,ioos:station:WAVCIS:CSI06:1,2009-03-06T21:00:00Z,28.8667,-90.4833,1023.63,11111222 
WAVCIS,ioos:station:WAVCIS:CSI06:1,2009-03-06T22:00:00Z,28.8667,-90.4833,1023.25,11111222 
WAVCIS,ioos:station:WAVCIS:CSI06:1,2009-03-06T23:00:00Z,28.8667,-90.4833,1022.96,11111222 
WAVCIS,ioos:station:WAVCIS:CSI06:1,2009-03-07T00:00:00Z,28.8667,-90.4833,1022.98,11111222 
WAVCIS,ioos:station:WAVCIS:CSI06:1,2009-03-07T01:00:00Z,28.8667,-90.4833,1023.0,11111222 
WAVCIS,ioos:station:WAVCIS:CSI06:1,2009-03-07T02:00:00Z,28.8667,-90.4833,1023.1,11111222 
WAVCIS,ioos:station:WAVCIS:CSI06:1,2009-03-07T03:00:00Z,28.8667,-90.4833,1023.29,11111222 
WAVCIS,ioos:station:WAVCIS:CSI06:1,2009-03-07T04:00:00Z,28.8667,-90.4833,1023.46,11111222 
WAVCIS,ioos:station:WAVCIS:CSI06:1,2009-03-07T05:00:00Z,28.8667,-90.4833,1023.14,11111222 
WAVCIS,ioos:station:WAVCIS:CSI06:1,2009-03-07T06:00:00Z,28.8667,-90.4833,1022.59,11111222 
WAVCIS,ioos:station:WAVCIS:CSI06:1,2009-03-07T07:00:00Z,28.8667,-90.4833,1022.48,11111222 
WAVCIS,ioos:station:WAVCIS:CSI06:1,2009-03-07T21:00:00Z,28.8667,-90.4833,1020.21,11111222 
WAVCIS,ioos:station:WAVCIS:CSI06:1,2009-03-07T22:00:00Z,28.8667,-90.4833,1019.97,11111222 
WAVCIS,ioos:station:WAVCIS:CSI06:1,2009-03-07T23:00:00Z,28.8667,-90.4833,1019.49,11111222 
WAVCIS,ioos:station:WAVCIS:CSI06:1,2009-03-08T00:00:00Z,28.8667,-90.4833,1019.58,11111222 
WAVCIS,ioos:station:WAVCIS:CSI06:1,2009-03-08T01:00:00Z,28.8667,-90.4833,1019.66,11111222 
WAVCIS,ioos:station:WAVCIS:CSI06:1,2009-03-08T02:00:00Z,28.8667,-90.4833,1019.71,11111222 
WAVCIS,ioos:station:WAVCIS:CSI06:1,2009-03-08T03:00:00Z,28.8667,-90.4833,1019.88,11111222 
WAVCIS,ioos:station:WAVCIS:CSI06:1,2009-03-08T04:00:00Z,28.8667,-90.4833,1020.03,11111222 
WAVCIS,ioos:station:WAVCIS:CSI06:1,2009-03-08T05:00:00Z,28.8667,-90.4833,1019.7,11111222 
WAVCIS,ioos:station:WAVCIS:CSI06:1,2009-03-08T06:00:00Z,28.8667,-90.4833,1018.95,11111222 
WAVCIS,ioos:station:WAVCIS:CSI06:1,2009-03-08T07:00:00Z,28.8667,-90.4833,1018.2,11111222 
WAVCIS,ioos:station:WAVCIS:CSI06:1,2009-03-08T08:00:00Z,28.8667,-90.4833,1017.58,11111222 
WAVCIS,ioos:station:WAVCIS:CSI06:1,2009-03-08T09:00:00Z,28.8667,-90.4833,1017.24,11111222 
WAVCIS,ioos:station:WAVCIS:CSI06:1,2009-03-08T10:00:00Z,28.8667,-90.4833,1017.2,11111222 
WAVCIS,ioos:station:WAVCIS:CSI06:1,2009-03-08T11:00:00Z,28.8667,-90.4833,1017.14,11111222 
WAVCIS,ioos:station:WAVCIS:CSI06:1,2009-03-08T12:00:00Z,28.8667,-90.4833,1017.67,11111222 
WAVCIS,ioos:station:WAVCIS:CSI06:1,2009-03-08T13:00:00Z,28.8667,-90.4833,1018.79,11111222 
WAVCIS,ioos:station:WAVCIS:CSI06:1,2009-03-08T14:00:00Z,28.8667,-90.4833,1019.67,11111222 
WAVCIS,ioos:station:WAVCIS:CSI06:1,2009-03-08T15:00:00Z,28.8667,-90.4833,1020.16,11111222 
WAVCIS,ioos:station:WAVCIS:CSI06:1,2009-03-08T16:00:00Z,28.8667,-90.4833,1020.45,11111222 
WAVCIS,ioos:station:WAVCIS:CSI06:1,2009-03-08T17:00:00Z,28.8667,-90.4833,1020.56,11111222 
WAVCIS,ioos:station:WAVCIS:CSI06:1,2009-03-08T18:00:00Z,28.8667,-90.4833,1020.54,11111222 
WAVCIS,ioos:station:WAVCIS:CSI06:1,2009-03-08T19:00:00Z,28.8667,-90.4833,1019.88,11111222 
WAVCIS,ioos:station:WAVCIS:CSI06:1,2009-03-08T20:00:00Z,28.8667,-90.4833,1019.2,11111222 
WAVCIS,ioos:station:WAVCIS:CSI06:1,2009-03-08T21:00:00Z,28.8667,-90.4833,1018.94,11111222 
WAVCIS,ioos:station:WAVCIS:CSI06:1,2009-03-08T22:00:00Z,28.8667,-90.4833,1018.5,11111222 
WAVCIS,ioos:station:WAVCIS:CSI06:1,2009-03-08T23:00:00Z,28.8667,-90.4833,1018.5,11111222 
WAVCIS,ioos:station:WAVCIS:CSI06:1,2009-03-09T00:00:00Z,28.8667,-90.4833,1019.04,11111222 
WAVCIS,ioos:station:WAVCIS:CSI06:1,2009-03-09T01:00:00Z,28.8667,-90.4833,1018.64,11111222 
WAVCIS,ioos:station:WAVCIS:CSI06:1,2009-03-09T02:00:00Z,28.8667,-90.4833,1018.87,11111222 
WAVCIS,ioos:station:WAVCIS:CSI06:1,2009-03-09T03:00:00Z,28.8667,-90.4833,1019.49,11111222 
WAVCIS,ioos:station:WAVCIS:CSI06:1,2009-03-09T04:00:00Z,28.8667,-90.4833,1019.67,11111222 
WAVCIS,ioos:station:WAVCIS:CSI06:1,2009-03-09T05:00:00Z,28.8667,-90.4833,1019.73,11111222 
WAVCIS,ioos:station:WAVCIS:CSI06:1,2009-03-09T06:00:00Z,28.8667,-90.4833,1019.71,11111222 
WAVCIS,ioos:station:WAVCIS:CSI06:1,2009-03-09T07:00:00Z,28.8667,-90.4833,1019.41,11111222 
WAVCIS,ioos:station:WAVCIS:CSI06:1,2009-03-09T08:00:00Z,28.8667,-90.4833,1019.15,11111222 
WAVCIS,ioos:station:WAVCIS:CSI06:1,2009-03-09T09:00:00Z,28.8667,-90.4833,1018.73,11111222 
WAVCIS,ioos:station:WAVCIS:CSI06:1,2009-03-09T10:00:00Z,28.8667,-90.4833,1018.83,11111222 
WAVCIS,ioos:station:WAVCIS:CSI06:1,2009-03-09T11:00:00Z,28.8667,-90.4833,1019.12,11111222 
WAVCIS,ioos:station:WAVCIS:CSI06:1,2009-03-09T12:00:00Z,28.8667,-90.4833,1019.57,11111222 
WAVCIS,ioos:station:WAVCIS:CSI06:1,2009-03-09T13:00:00Z,28.8667,-90.4833,1020.33,11111222 
WAVCIS,ioos:station:WAVCIS:CSI06:1,2009-03-09T14:00:00Z,28.8667,-90.4833,1021.01,11111222 
WAVCIS,ioos:station:WAVCIS:CSI06:1,2009-03-09T15:00:00Z,28.8667,-90.4833,1021.4,11111222 
WAVCIS,ioos:station:WAVCIS:CSI06:1,2009-03-09T16:00:00Z,28.8667,-90.4833,1021.59,11111222 
WAVCIS,ioos:station:WAVCIS:CSI06:1,2009-03-09T17:00:00Z,28.8667,-90.4833,1021.81,11111222 
WAVCIS,ioos:station:WAVCIS:CSI06:1,2009-03-09T18:00:00Z,28.8667,-90.4833,1021.18,11111222 
WAVCIS,ioos:station:WAVCIS:CSI06:1,2009-03-09T19:00:00Z,28.8667,-90.4833,1020.57,11111222 
WAVCIS,ioos:station:WAVCIS:CSI06:1,2009-03-09T20:00:00Z,28.8667,-90.4833,1019.87,11111222 
WAVCIS,ioos:station:WAVCIS:CSI06:1,2009-03-09T21:00:00Z,28.8667,-90.4833,1019.47,11111222 
WAVCIS,ioos:station:WAVCIS:CSI06:1,2009-03-09T22:00:00Z,28.8667,-90.4833,1019.05,11111222 
WAVCIS,ioos:station:WAVCIS:CSI06:1,2009-03-09T23:00:00Z,28.8667,-90.4833,1019.11,11111222 
WAVCIS,ioos:station:WAVCIS:CSI06:1,2009-03-10T00:00:00Z,28.8667,-90.4833,1019.2,11111222 
WAVCIS,ioos:station:WAVCIS:CSI06:1,2009-03-10T01:00:00Z,28.8667,-90.4833,1019.55,11111222 
WAVCIS,ioos:station:WAVCIS:CSI06:1,2009-03-10T02:00:00Z,28.8667,-90.4833,1019.7,11111222 
WAVCIS,ioos:station:WAVCIS:CSI06:1,2009-03-10T03:00:00Z,28.8667,-90.4833,1019.9,11111222 
WAVCIS,ioos:station:WAVCIS:CSI06:1,2009-03-10T04:00:00Z,28.8667,-90.4833,1019.75,11111222 
WAVCIS,ioos:station:WAVCIS:CSI06:1,2009-03-10T05:00:00Z,28.8667,-90.4833,1019.53,11111222 
WAVCIS,ioos:station:WAVCIS:CSI06:1,2009-03-10T06:00:00Z,28.8667,-90.4833,1019.2,11111222 
WAVCIS,ioos:station:WAVCIS:CSI06:1,2009-03-10T07:00:00Z,28.8667,-90.4833,1018.53,11111222 
WAVCIS,ioos:station:WAVCIS:CSI06:1,2009-03-10T08:00:00Z,28.8667,-90.4833,1017.97,11111222 
WAVCIS,ioos:station:WAVCIS:CSI06:1,2009-03-10T09:00:00Z,28.8667,-90.4833,1017.54,11111222 
WAVCIS,ioos:station:WAVCIS:CSI06:1,2009-03-10T10:00:00Z,28.8667,-90.4833,1017.32,11111222 
WAVCIS,ioos:station:WAVCIS:CSI06:1,2009-03-10T11:00:00Z,28.8667,-90.4833,1017.21,11111222 
WAVCIS,ioos:station:WAVCIS:CSI06:1,2009-03-10T12:00:00Z,28.8667,-90.4833,1017.19,11111222 
WAVCIS,ioos:station:WAVCIS:CSI06:1,2009-03-10T13:00:00Z,28.8667,-90.4833,1017.81,11111222 
WAVCIS,ioos:station:WAVCIS:CSI06:1,2009-03-10T14:00:00Z,28.8667,-90.4833,1018.43,11111222 
WAVCIS,ioos:station:WAVCIS:CSI06:1,2009-03-10T15:00:00Z,28.8667,-90.4833,1018.86,11111222 
WAVCIS,ioos:station:WAVCIS:CSI06:1,2009-03-10T16:00:00Z,28.8667,-90.4833,1019.16,11111222 
WAVCIS,ioos:station:WAVCIS:CSI06:1,2009-03-10T17:00:00Z,28.8667,-90.4833,1019.42,11111222 
WAVCIS,ioos:station:WAVCIS:CSI06:1,2009-03-10T18:00:00Z,28.8667,-90.4833,1019.12,11111222 
WAVCIS,ioos:station:WAVCIS:CSI06:1,2009-03-10T19:00:00Z,28.8667,-90.4833,1018.53,11111222 
WAVCIS,ioos:station:WAVCIS:CSI06:1,2009-03-10T20:00:00Z,28.8667,-90.4833,1018.06,11111222 
WAVCIS,ioos:station:WAVCIS:CSI06:1,2009-03-10T21:00:00Z,28.8667,-90.4833,1017.61,11111222 
WAVCIS,ioos:station:WAVCIS:CSI06:1,2009-03-10T22:00:00Z,28.8667,-90.4833,1017.36,11111222 
WAVCIS,ioos:station:WAVCIS:CSI06:1,2009-03-10T23:00:00Z,28.8667,-90.4833,1017.53,11111222 
WAVCIS,ioos:station:WAVCIS:CSI06:1,2009-03-11T00:00:00Z,28.8667,-90.4833,1018.02,11111222 
WAVCIS,ioos:station:WAVCIS:CSI06:1,2009-03-11T01:00:00Z,28.8667,-90.4833,1018.24,11111222 
WAVCIS,ioos:station:WAVCIS:CSI06:1,2009-03-11T02:00:00Z,28.8667,-90.4833,1018.69,11111222 
WAVCIS,ioos:station:WAVCIS:CSI06:1,2009-03-11T03:00:00Z,28.8667,-90.4833,1019.0,11111222 
WAVCIS,ioos:station:WAVCIS:CSI06:1,2009-03-11T04:00:00Z,28.8667,-90.4833,1019.25,11111222 
WAVCIS,ioos:station:WAVCIS:CSI06:1,2009-03-11T05:00:00Z,28.8667,-90.4833,1019.31,11111222 
WAVCIS,ioos:station:WAVCIS:CSI06:1,2009-03-11T06:00:00Z,28.8667,-90.4833,1018.91,11111222 
WAVCIS,ioos:station:WAVCIS:CSI06:1,2009-03-11T07:00:00Z,28.8667,-90.4833,1018.85,11111222 
WAVCIS,ioos:station:WAVCIS:CSI06:1,2009-03-11T08:00:00Z,28.8667,-90.4833,1018.39,11111222 
WAVCIS,ioos:station:WAVCIS:CSI06:1,2009-03-11T09:00:00Z,28.8667,-90.4833,1018.14,11111222 
WAVCIS,ioos:station:WAVCIS:CSI06:1,2009-03-11T10:00:00Z,28.8667,-90.4833,1018.24,11111222 
WAVCIS,ioos:station:WAVCIS:CSI06:1,2009-03-11T11:00:00Z,28.8667,-90.4833,1018.65,11111222 
WAVCIS,ioos:station:WAVCIS:CSI06:1,2009-03-11T12:00:00Z,28.8667,-90.4833,1019.07,11111222 
WAVCIS,ioos:station:WAVCIS:CSI06:1,2009-03-11T13:00:00Z,28.8667,-90.4833,1019.39,11111222 
WAVCIS,ioos:station:WAVCIS:CSI06:1,2009-03-11T14:00:00Z,28.8667,-90.4833,1020.48,11111222 
WAVCIS,ioos:station:WAVCIS:CSI06:1,2009-03-11T15:00:00Z,28.8667,-90.4833,1021.26,11111222 
WAVCIS,ioos:station:WAVCIS:CSI06:1,2009-03-11T16:00:00Z,28.8667,-90.4833,1021.95,11111222 
WAVCIS,ioos:station:WAVCIS:CSI06:1,2009-03-11T17:00:00Z,28.8667,-90.4833,1021.89,11111222 
WAVCIS,ioos:station:WAVCIS:CSI06:1,2009-03-11T18:00:00Z,28.8667,-90.4833,1021.52,11111222 
WAVCIS,ioos:station:WAVCIS:CSI06:1,2009-03-11T19:00:00Z,28.8667,-90.4833,1020.97,11111222 
WAVCIS,ioos:station:WAVCIS:CSI06:1,2009-03-11T20:00:00Z,28.8667,-90.4833,1020.28,11111222 
WAVCIS,ioos:station:WAVCIS:CSI06:1,2009-03-11T21:00:00Z,28.8667,-90.4833,1019.68,11111222 
WAVCIS,ioos:station:WAVCIS:CSI06:1,2009-03-11T22:00:00Z,28.8667,-90.4833,1019.31,11111222 
WAVCIS,ioos:station:WAVCIS:CSI06:1,2009-03-11T23:00:00Z,28.8667,-90.4833,1019.13,11111222 
WAVCIS,ioos:station:WAVCIS:CSI06:1,2009-03-12T00:00:00Z,28.8667,-90.4833,1019.48,11111222 
WAVCIS,ioos:station:WAVCIS:CSI06:1,2009-03-12T01:00:00Z,28.8667,-90.4833,1019.76,11111222 
WAVCIS,ioos:station:WAVCIS:CSI06:1,2009-03-12T02:00:00Z,28.8667,-90.4833,1020.27,11111222 
WAVCIS,ioos:station:WAVCIS:CSI06:1,2009-03-12T03:00:00Z,28.8667,-90.4833,1020.34,11111222 
WAVCIS,ioos:station:WAVCIS:CSI06:1,2009-03-12T04:00:00Z,28.8667,-90.4833,1020.58,11111222 
WAVCIS,ioos:station:WAVCIS:CSI06:1,2009-03-12T05:00:00Z,28.8667,-90.4833,1020.41,11111222 
WAVCIS,ioos:station:WAVCIS:CSI06:1,2009-03-12T06:00:00Z,28.8667,-90.4833,1020.19,11111222 
WAVCIS,ioos:station:WAVCIS:CSI06:1,2009-03-12T07:00:00Z,28.8667,-90.4833,1019.88,11111222 
WAVCIS,ioos:station:WAVCIS:CSI06:1,2009-03-12T08:00:00Z,28.8667,-90.4833,1019.65,11111222 
WAVCIS,ioos:station:WAVCIS:CSI06:1,2009-03-12T09:00:00Z,28.8667,-90.4833,1019.22,11111222 
WAVCIS,ioos:station:WAVCIS:CSI06:1,2009-03-12T10:00:00Z,28.8667,-90.4833,1019.19,11111222 
WAVCIS,ioos:station:WAVCIS:CSI06:1,2009-03-12T11:00:00Z,28.8667,-90.4833,1019.41,11111222 
WAVCIS,ioos:station:WAVCIS:CSI06:1,2009-03-12T12:00:00Z,28.8667,-90.4833,1019.59,11111222 
WAVCIS,ioos:station:WAVCIS:CSI06:1,2009-03-12T13:00:00Z,28.8667,-90.4833,1020.2,11111222 
WAVCIS,ioos:station:WAVCIS:CSI06:1,2009-03-12T14:00:00Z,28.8667,-90.4833,1020.89,11111222 
WAVCIS,ioos:station:WAVCIS:CSI06:1,2009-03-12T15:00:00Z,28.8667,-90.4833,1021.61,11111222 
WAVCIS,ioos:station:WAVCIS:CSI06:1,2009-03-12T16:00:00Z,28.8667,-90.4833,1021.88,11111222 
WAVCIS,ioos:station:WAVCIS:CSI06:1,2009-03-12T17:00:00Z,28.8667,-90.4833,1021.5,11111222 
WAVCIS,ioos:station:WAVCIS:CSI06:1,2009-03-12T18:00:00Z,28.8667,-90.4833,1020.84,11111222 
WAVCIS,ioos:station:WAVCIS:CSI06:1,2009-03-12T19:00:00Z,28.8667,-90.4833,1019.5,11111222 
WAVCIS,ioos:station:WAVCIS:CSI06:1,2009-03-12T20:00:00Z,28.8667,-90.4833,1019.69,11111222 
WAVCIS,ioos:station:WAVCIS:CSI06:1,2009-03-12T21:00:00Z,28.8667,-90.4833,1019.31,11111222 
WAVCIS,ioos:station:WAVCIS:CSI06:1,2009-03-12T22:00:00Z,28.8667,-90.4833,1019.06,11111222 
WAVCIS,ioos:station:WAVCIS:CSI06:1,2009-03-12T23:00:00Z,28.8667,-90.4833,1018.84,11111222 
WAVCIS,ioos:station:WAVCIS:CSI06:1,2009-03-13T00:00:00Z,28.8667,-90.4833,1019.12,11111222 
WAVCIS,ioos:station:WAVCIS:CSI06:1,2009-03-13T01:00:00Z,28.8667,-90.4833,1019.35,11111222 